sat.trackr.live / text

‹ back to catalog

STARLINK-2421

NORAD 48098 · 2021-027G

PAYLOAD ACTIVE UNKNOWN

§ Identity

Operator
Country
US
Launch date
2021-04-07
Launch site
AFETR
Launch vehicle
Mass (kg)
RCS (m²)

Purposes: comms

External: N2YO · Heavens-Above · Gunter

§ Orbital elements

Epoch: 2026-05-24T17:44:06.382464Z

Period
94.01 min
Inclination
53.1590°
Eccentricity
0.0001291
Mean motion
15.31706465 rev/d
Perigee alt
469.8 km
Apogee alt
471.6 km
Semi-major
6,848.9 km
B*
5.3765e-5
RAAN
161.2241°
Arg perigee
82.5822°
Mean anomaly
277.5326°
Rev number
28,430

§ Raw data

STARLINK-24211 48098U 21027G   26144.73896276  .00001304  00000+0  53765-4 0  99932 48098  53.1590 161.2241 0001291  82.5822 277.5326 15.31706465284308

JSON: /api/v1/satellites/48098 · /tle

For live sub-satellite position, see the globe view (requires WebGL).

§ Visibility from observer

Set your observer location to see the next 7 days of passes ≥ 10°. The values pass through the URL so the page stays shareable.

No JS? Fill the form by hand. The geolocation button needs JavaScript.